FW5619 Merrick NY US current weather conditions

sailwx.info

Wind from 300 at 6 knots gusting 20

Air temperature 2.8° C
Dewpoint -5.4° C

Last reported at 2019-Dec-06 04:10 UTC.
Time now 2019-Dec-06 05:13 UTC

Location: N 40°39' W 073°33'.
View on Google Maps.

See reports from other nearby stations

  
Tides and Currents Weather Stations Pressure Air Temp Water Temp Dewpoint Dewpoint Depression Visibility Wind Speed Wind Dir Waves Ship Positions
date/time (UTC)wind fromknots sea level pressurealtimeterstation pressurevisibilityair tempwater tempwave heightnotes
2019-Dec-06 04:10 300 6 gusting 20 2.8
2019-Dec-06 04:05 298 11 gusting 20 2.8
2019-Dec-06 03:55 286 7 gusting 21 3.3
2019-Dec-06 03:50 307 10 gusting 23 3.3
2019-Dec-06 03:40 279 11 gusting 17 3.3
2019-Dec-06 03:35 298 9 gusting 18 3.3
2019-Dec-06 03:30 274 9 gusting 20 3.3
2019-Dec-06 03:25 281 10 gusting 21 3.3
2019-Dec-06 03:20 305 6 gusting 21 3.3
2019-Dec-06 03:15 298 6 gusting 19 3.3
2019-Dec-06 03:10 296 6 gusting 23 3.3
2019-Dec-06 03:02 304 8 gusting 16 3.3
2019-Dec-06 02:55 281 6 gusting 12 3.3
2019-Dec-06 02:50 294 4 gusting 9 3.3
2019-Dec-06 02:46 265 5 gusting 12 3.3
2019-Dec-06 02:40 269 4 gusting 14 3.3
2019-Dec-06 02:35 289 5 gusting 16 3.3
2019-Dec-06 02:32 355 6 gusting 13 2.8
2019-Dec-06 02:25 315 3 gusting 15 2.8
2019-Dec-06 02:20 334 6 gusting 15 2.8
2019-Dec-06 02:17 295 7 gusting 14 2.8
2019-Dec-06 02:10 316 7 gusting 14 3.3
2019-Dec-06 02:05 333 7 gusting 16 3.3
2019-Dec-06 02:01 294 10 gusting 17 3.3
2019-Dec-06 01:55 287 8 gusting 17 3.3
2019-Dec-06 01:50 291 8 gusting 24 3.3
2019-Dec-06 01:46 336 10 gusting 24 3.3
2019-Dec-06 01:40 291 12 gusting 21 3.3
2019-Dec-06 01:35 333 11 gusting 15 3.3
2019-Dec-06 01:31 298 5 gusting 14 3.3
2019-Dec-06 01:25 017 6 gusting 22 3.3
2019-Dec-06 01:20 325 9 gusting 22 3.3
2019-Dec-06 01:16 294 7 gusting 17 3.3
2019-Dec-06 01:10 281 8 gusting 17 3.9
2019-Dec-06 01:05 341 9 gusting 16 3.3
2019-Dec-06 01:01 297 6 gusting 17 3.3
2019-Dec-06 00:55 294 9 gusting 18 3.9
2019-Dec-06 00:50 293 10 gusting 18 3.3
2019-Dec-06 00:47 302 10 gusting 18 3.3
2019-Dec-06 00:40 283 6 gusting 13 3.3
2019-Dec-06 00:35 320 7 gusting 12 3.9
2019-Dec-06 00:30 294 5 gusting 16 3.9
2019-Dec-06 00:25 303 8 gusting 18 3.9
2019-Dec-06 00:16 302 7 gusting 14 3.9
2019-Dec-06 00:10 326 5 gusting 15 3.9
2019-Dec-06 00:05 302 6 gusting 15 3.9
2019-Dec-06 00:00 292 9 gusting 15 3.9
2019-Dec-05 23:55 300 7 gusting 16 3.9
2019-Dec-05 23:50 311 7 gusting 16 3.9
2019-Dec-05 23:46 263 6 gusting 15 3.9
2019-Dec-05 23:40 263 6 gusting 13 3.9
2019-Dec-05 23:35 292 5 gusting 16 3.9
2019-Dec-05 23:30 302 7 gusting 16 3.9
2019-Dec-05 23:25 297 7 gusting 17 3.9
2019-Dec-05 23:20 308 8 gusting 18 3.9
2019-Dec-05 23:15 307 9 gusting 18 3.9
2019-Dec-05 23:10 283 6 gusting 17 4.4
2019-Dec-05 23:05 275 6 gusting 17 4.4
2019-Dec-05 23:00 308 12 gusting 22 4.4
2019-Dec-05 22:55 293 12 gusting 23 4.4
2019-Dec-05 22:50 324 9 gusting 18 4.4
2019-Dec-05 22:45 280 10 gusting 19 4.4
2019-Dec-05 22:40 319 11 gusting 19 4.4
2019-Dec-05 22:35 258 6 gusting 16 4.4
2019-Dec-05 22:25 307 9 gusting 17 4.4
2019-Dec-05 22:15 281 12 gusting 18 4.4
2019-Dec-05 22:10 294 12 gusting 18 4.4
2019-Dec-05 22:05 324 10 gusting 17 4.4
2019-Dec-05 21:55 253 7 gusting 17 4.4
2019-Dec-05 21:50 298 9 gusting 16 4.4
2019-Dec-05 21:40 247 9 gusting 23 4.4
2019-Dec-05 21:35 268 6 gusting 17 4.4
2019-Dec-05 21:25 321 10 gusting 15 4.4
2019-Dec-05 21:20 302 8 gusting 18 4.4
2019-Dec-05 21:15 298 11 gusting 18 4.4
2019-Dec-05 21:10 306 8 gusting 19 5.0
2019-Dec-05 21:05 284 11 gusting 20 5.0
2019-Dec-05 21:00 320 12 gusting 20 5.0
2019-Dec-05 20:55 296 10 gusting 18 5.0
2019-Dec-05 20:50 273 9 gusting 13 5.0
2019-Dec-05 20:45 246 6 gusting 19 5.0
2019-Dec-05 20:40 244 10 gusting 19 5.0
2019-Dec-05 20:32 331 9 gusting 19 5.0
2019-Dec-05 20:25 283 8 gusting 19 5.0
2019-Dec-05 20:21 328 6 gusting 15 5.0
2019-Dec-05 20:17 324 6 gusting 15 5.0
2019-Dec-05 20:11 281 6 gusting 18 5.0
2019-Dec-05 20:06 284 9 gusting 21 5.0
2019-Dec-05 20:01 336 5 gusting 24 5.0
2019-Dec-05 19:55 291 8 gusting 24 5.0
2019-Dec-05 19:50 300 7 gusting 22 5.0
2019-Dec-05 19:47 293 9 gusting 24 5.0
2019-Dec-05 19:40 295 13 gusting 24 5.0
2019-Dec-05 19:35 293 10 gusting 25 5.0
2019-Dec-05 19:32 286 7 gusting 20 5.0
2019-Dec-05 19:26 305 8 gusting 22 5.0
2019-Dec-05 19:20 288 13 gusting 22 5.0
2019-Dec-05 19:16 280 7 gusting 21 5.0
2019-Dec-05 19:10 304 11 gusting 19 5.0
2019-Dec-05 19:05 277 7 gusting 19 5.6
2019-Dec-05 19:01 298 9 gusting 18 5.6
2019-Dec-05 18:56 028 5 gusting 22 5.0
2019-Dec-05 18:50 337 12 gusting 22 5.0
2019-Dec-05 18:47 281 8 gusting 24 5.0
2019-Dec-05 18:40 306 10 gusting 21 5.0
2019-Dec-05 18:35 331 13 gusting 22 5.6
2019-Dec-05 18:31 324 11 gusting 24 5.6
2019-Dec-05 18:26 288 10 gusting 24 5.6
2019-Dec-05 18:20 286 10 gusting 19 6.1
2019-Dec-05 18:10 313 12 gusting 21 5.6
2019-Dec-05 18:05 284 10 gusting 21 5.6
2019-Dec-05 18:01 295 12 gusting 21 5.6
2019-Dec-05 17:55 296 10 gusting 21 5.6
2019-Dec-05 17:50 342 8 gusting 21 5.6
2019-Dec-05 17:46 302 8 gusting 21 5.6
2019-Dec-05 17:40 286 9 gusting 23 5.6
2019-Dec-05 17:35 339 7 gusting 23 5.6
2019-Dec-05 17:31 340 7 gusting 26 5.0
2019-Dec-05 17:25 282 15 gusting 26 5.6
2019-Dec-05 17:20 279 11 gusting 26 5.6
2019-Dec-05 17:16 284 10 gusting 24 5.6
2019-Dec-05 17:10 288 5 gusting 21 5.0
2019-Dec-05 17:05 315 7 gusting 27 5.0
2019-Dec-05 17:00 319 10 gusting 27 5.0
2019-Dec-05 16:55 286 12 gusting 21 5.0
2019-Dec-05 16:50 288 10 gusting 19 5.0
2019-Dec-05 16:46 277 11 gusting 21 5.0
2019-Dec-05 16:40 302 14 gusting 25 5.6
2019-Dec-05 16:35 313 11 gusting 25 5.6
2019-Dec-05 16:30 259 12 gusting 23 5.6
2019-Dec-05 16:25 275 12 gusting 23 5.6
2019-Dec-05 16:15 265 14 gusting 23 5.6
2019-Dec-05 16:10 303 12 gusting 23 5.6
2019-Dec-05 16:05 268 11 gusting 22 5.6
2019-Dec-05 16:00 273 11 gusting 22 5.6
2019-Dec-05 15:55 287 12 gusting 22 5.6
2019-Dec-05 15:50 316 12 gusting 25 5.6
2019-Dec-05 15:45 280 14 gusting 25 5.6
2019-Dec-05 15:40 283 12 gusting 22 5.6
2019-Dec-05 15:35 291 13 gusting 20 5.6
2019-Dec-05 15:30 287 13 gusting 24 5.6
2019-Dec-05 15:25 334 12 gusting 21 5.6
2019-Dec-05 15:20 286 13 gusting 25 5.0
2019-Dec-05 15:16 294 11 gusting 25 5.6
2019-Dec-05 15:10 305 11 gusting 25 5.6
2019-Dec-05 15:05 275 13 gusting 24 5.6
2019-Dec-05 15:00 282 9 gusting 24 5.6
2019-Dec-05 14:55 285 12 gusting 21 5.0
2019-Dec-05 14:50 285 13 gusting 25 5.0
2019-Dec-05 14:45 296 13 gusting 25 5.0
2019-Dec-05 14:40 292 13 gusting 26 5.6
2019-Dec-05 14:35 290 9 gusting 17 5.6
2019-Dec-05 14:30 312 9 gusting 17 5.6
2019-Dec-05 14:25 295 10 gusting 19 5.0
2019-Dec-05 14:20 303 9 gusting 21 5.0
2019-Dec-05 14:10 307 11 gusting 22 5.0
2019-Dec-05 14:05 290 11 gusting 18 5.0
2019-Dec-05 13:55 309 8 gusting 18 4.4
2019-Dec-05 13:50 322 10 gusting 21 4.4
2019-Dec-05 13:45 321 11 gusting 22 4.4
2019-Dec-05 13:40 261 11 gusting 23 4.4
2019-Dec-05 13:35 291 10 gusting 17 4.4
2019-Dec-05 13:30 297 8 gusting 15 4.4
2019-Dec-05 13:25 309 7 gusting 18 4.4
2019-Dec-05 13:20 280 9 gusting 18 4.4
2019-Dec-05 13:10 304 9 gusting 18 4.4
2019-Dec-05 13:05 284 7 gusting 14 4.4
2019-Dec-05 12:56 272 8 gusting 15 3.9
2019-Dec-05 12:51 281 9 gusting 15 3.9
2019-Dec-05 12:46 329 6 gusting 13 3.9
2019-Dec-05 12:40 277 5 gusting 12 3.3
2019-Dec-05 12:35 279 6 gusting 12 3.3
2019-Dec-05 12:31 280 6 gusting 11 3.3
2019-Dec-05 12:25 263 5 gusting 9 2.8
2019-Dec-05 12:20 274 2 gusting 7 2.8
2019-Dec-05 12:17 265 2 gusting 8 2.8
2019-Dec-05 12:10 269 3 gusting 11 2.8
2019-Dec-05 12:05 230 3 gusting 11 2.8
2019-Dec-05 12:01 266 2 gusting 11 2.8
2019-Dec-05 11:55 254 5 gusting 11 2.8
2019-Dec-05 11:50 239 5 gusting 9 2.8
2019-Dec-05 11:46 294 4 gusting 9 2.8
2019-Dec-05 11:40 251 3 gusting 10 2.8
2019-Dec-05 11:35 216 5 gusting 10 2.8
2019-Dec-05 11:31 243 2 gusting 7 2.8
2019-Dec-05 11:25 259 4 gusting 7 2.8
2019-Dec-05 11:20 269 3 gusting 7 2.8
2019-Dec-05 11:16 277 3 gusting 6 2.8
2019-Dec-05 11:10 259 2 gusting 7 2.8
2019-Dec-05 11:05 256 2 gusting 7 2.8
2019-Dec-05 11:01 240 3 gusting 7 2.8
2019-Dec-05 10:55 271 2 gusting 8 2.2
2019-Dec-05 10:50 284 4 gusting 8 2.2
2019-Dec-05 10:45 244 4 gusting 8 2.2
2019-Dec-05 10:40 275 2 gusting 7 2.2
2019-Dec-05 10:35 264 3 gusting 7 2.2
2019-Dec-05 10:30 269 3 gusting 6 2.2
2019-Dec-05 10:25 261 1 gusting 4 2.2
2019-Dec-05 10:20 265 1 gusting 6 2.2
2019-Dec-05 10:15 292 3 gusting 6 2.2
2019-Dec-05 10:05 300 2 gusting 7 2.2
2019-Dec-05 10:01 322 3 gusting 7 2.2
2019-Dec-05 09:55 292 0 gusting 6 2.2
2019-Dec-05 09:50 282 2 gusting 7 2.2
2019-Dec-05 09:46 286 3 gusting 7 2.2
2019-Dec-05 09:40 279 2 gusting 7 2.2
2019-Dec-05 09:35 281 3 gusting 7 2.2
2019-Dec-05 09:30 272 3 gusting 7 2.2
2019-Dec-05 09:25 267 2 gusting 9 2.2
2019-Dec-05 09:20 315 4 gusting 9 2.2
2019-Dec-05 09:15 243 5 gusting 9 2.2
2019-Dec-05 09:10 257 3 gusting 8 2.2
2019-Dec-05 09:05 252 4 gusting 8 2.2
2019-Dec-05 09:01 225 5 gusting 9 2.2
2019-Dec-05 08:55 280 4 gusting 9 2.2
2019-Dec-05 08:50 249 3 gusting 9 2.2
2019-Dec-05 08:45 242 4 gusting 7 2.2
2019-Dec-05 08:40 257 4 gusting 7 2.2
2019-Dec-05 08:35 246 2 gusting 8 2.2
2019-Dec-05 08:30 269 5 gusting 9 2.2
2019-Dec-05 08:25 277 3 gusting 9 2.2
2019-Dec-05 08:20 250 2 gusting 7 2.2
2019-Dec-05 08:15 215 3 gusting 7 2.2
2019-Dec-05 08:05 259 2 gusting 8 2.2
2019-Dec-05 07:55 252 3 gusting 6 2.2
2019-Dec-05 07:50 252 1 gusting 6 2.2
2019-Dec-05 07:45 252 2 gusting 6 2.8
2019-Dec-05 07:35 288 2 gusting 6 2.8
2019-Dec-05 07:25 278 2 gusting 7 2.8
2019-Dec-05 07:20 282 4 gusting 8 2.8
2019-Dec-05 07:15 336 3 gusting 8 2.8
2019-Dec-05 07:10 277 5 gusting 10 2.8
2019-Dec-05 07:05 302 6 gusting 10 2.8
2019-Dec-05 06:55 294 5 gusting 10 2.8
2019-Dec-05 06:50 282 4 gusting 7 2.8
2019-Dec-05 06:40 292 1 gusting 6 2.8
2019-Dec-05 06:35 267 1 gusting 6 2.8
2019-Dec-05 06:30 259 0 gusting 7 2.8
2019-Dec-05 06:25 302 1 gusting 9 2.8
2019-Dec-05 06:20 286 4 gusting 9 2.8
2019-Dec-05 06:11 216 2 gusting 7 2.8
2019-Dec-05 06:05 238 4 gusting 10 2.8
2019-Dec-05 06:02 240 6 gusting 10 2.8
2019-Dec-05 05:55 257 1 gusting 8 2.8
2019-Dec-05 05:50 271 4 gusting 9 2.8
2019-Dec-05 05:47 217 4 gusting 9 2.8
2019-Dec-05 05:40 292 4 gusting 10 2.8
2019-Dec-05 05:36 259 6 gusting 10 2.8
2019-Dec-05 05:32 275 3 gusting 8 2.8
2019-Dec-05 05:25 263 4 gusting 9 2.8
2019-Dec-05 05:20 243 4 gusting 9 2.8
2019-Dec-05 05:17 263 2 gusting 10 3.3
2019-Dec-05 05:05 292 4 gusting 10 3.3
2019-Dec-05 05:01 288 3 gusting 9 3.3
2019-Dec-05 04:55 259 5 gusting 9 3.3
2019-Dec-05 04:50 245 4 gusting 12 3.3
2019-Dec-05 04:48 240 4 gusting 12 3.3
2019-Dec-05 04:40 266 5 gusting 13 3.3
2019-Dec-05 04:35 240 5 gusting 13 3.3
2019-Dec-05 04:31 246 6 gusting 13 3.3
2019-Dec-05 04:25 229 6 gusting 13 3.3
2019-Dec-05 04:21 251 4 gusting 13 3.3
2019-Dec-05 04:16 270 6 gusting 13 3.3
2019-Dec-05 04:10 246 5 gusting 13 3.3
2019-Dec-05 04:05 246 5 gusting 13 3.3
2019-Dec-05 04:02 236 6 gusting 13 3.3
2019-Dec-05 03:55 259 3 gusting 10 3.3
2019-Dec-05 03:51 238 3 gusting 11 3.3
2019-Dec-05 03:46 263 5 gusting 11 3.3
2019-Dec-05 03:41 240 5 gusting 10 3.3
2019-Dec-05 03:35 250 6 gusting 10 3.3
2019-Dec-05 03:31 242 4 gusting 9 3.3
2019-Dec-05 03:25 247 5 gusting 9 3.3
2019-Dec-05 03:20 236 4 gusting 11 3.3
2019-Dec-05 03:17 234 4 gusting 11 3.3
2019-Dec-05 03:10 290 3 gusting 9 3.3
2019-Dec-05 03:05 242 4 gusting 11 3.3
2019-Dec-05 03:02 264 5 gusting 11 3.3
2019-Dec-05 02:55 242 3 gusting 10 3.3
2019-Dec-05 02:50 254 5 gusting 10 3.3
2019-Dec-05 02:46 251 4 gusting 9 3.3
2019-Dec-05 02:40 254 5 gusting 10 3.3
2019-Dec-05 02:35 226 3 gusting 10 3.3
2019-Dec-05 02:31 244 4 gusting 11 3.3
2019-Dec-05 02:25 257 3 gusting 11 3.9
2019-Dec-05 02:20 266 3 gusting 8 3.9
2019-Dec-05 02:16 248 3 gusting 10 3.9
2019-Dec-05 02:10 229 4 gusting 12 3.9
2019-Dec-05 02:01 243 5 gusting 10 3.9
2019-Dec-05 01:55 222 4 gusting 9 3.9
2019-Dec-05 01:50 256 4 gusting 11 3.9
2019-Dec-05 01:46 248 5 gusting 11 3.9
2019-Dec-05 01:40 250 4 gusting 10 3.9
2019-Dec-05 01:35 246 4 gusting 13 3.9
2019-Dec-05 01:31 249 6 gusting 13 3.9
2019-Dec-05 01:25 248 5 gusting 12 3.9
2019-Dec-05 01:20 247 6 gusting 13 3.9
2019-Dec-05 01:16 248 7 gusting 13 3.9
2019-Dec-05 01:10 265 6 gusting 12 3.9
2019-Dec-05 01:05 247 6 gusting 10 3.9
2019-Dec-05 01:01 252 4 gusting 9 3.9
2019-Dec-05 00:55 277 3 gusting 8 3.9
2019-Dec-05 00:50 247 4 gusting 8 3.9
2019-Dec-05 00:46 254 3 gusting 9 3.9
2019-Dec-05 00:40 269 3 gusting 7 3.9
2019-Dec-05 00:35 255 2 gusting 6 3.9
2019-Dec-05 00:31 275 2 gusting 9 3.9
2019-Dec-05 00:25 263 3 gusting 9 3.9
2019-Dec-05 00:20 241 2 gusting 8 3.9
2019-Dec-05 00:16 276 3 gusting 6 3.9
2019-Dec-05 00:10 242 2 gusting 7 3.9
2019-Dec-05 00:00 251 5 gusting 10 3.9
2019-Dec-04 23:55 246 4 gusting 7 3.9
2019-Dec-04 23:50 261 4 gusting 9 3.9
2019-Dec-04 23:46 238 5 gusting 10 3.9
2019-Dec-04 23:40 273 3 gusting 10 3.9
2019-Dec-04 23:35 234 4 gusting 9 3.3
2019-Dec-04 23:31 252 3 gusting 7 3.3
2019-Dec-04 23:25 261 3 gusting 7 3.3
2019-Dec-04 23:20 297 3 gusting 7 3.3
2019-Dec-04 23:15 241 3 gusting 6 3.3
2019-Dec-04 23:10 252 1 gusting 8 3.3
2019-Dec-04 23:05 263 3 gusting 8 3.3
2019-Dec-04 23:00 248 3 gusting 7 3.3
2019-Dec-04 22:55 262 3 gusting 8 3.3
2019-Dec-04 22:50 217 2 gusting 8 3.3
2019-Dec-04 22:46 269 3 gusting 7 3.3
2019-Dec-04 22:40 254 3 gusting 7 3.9
2019-Dec-04 22:35 238 3 gusting 9 3.9
2019-Dec-04 22:30 244 5 gusting 9 3.9
2019-Dec-04 22:25 239 2 gusting 6 3.9
2019-Dec-04 22:20 307 3 gusting 9 3.9
2019-Dec-04 22:16 246 4 gusting 9 3.9
2019-Dec-04 22:10 273 5 gusting 8 3.9
2019-Dec-04 22:05 224 5 gusting 9 3.9
2019-Dec-04 22:01 235 5 gusting 9 3.9
2019-Dec-04 21:55 226 4 gusting 9 3.9
2019-Dec-04 21:50 239 3 gusting 7 3.9
2019-Dec-04 21:46 254 3 gusting 10 3.9
2019-Dec-04 21:40 242 3 gusting 9 3.9
2019-Dec-04 21:35 216 4 gusting 9 3.9
2019-Dec-04 21:31 236 2 gusting 8 3.9
2019-Dec-04 21:25 246 3 gusting 8 3.9
2019-Dec-04 21:20 233 4 gusting 7 3.9
2019-Dec-04 21:16 232 3 gusting 10 3.9
2019-Dec-04 21:10 285 5 gusting 11 3.9
2019-Dec-04 21:05 281 5 gusting 11 3.9
2019-Dec-04 21:00 273 5 gusting 11 3.9
2019-Dec-04 20:55 285 4 gusting 11 3.9
2019-Dec-04 20:50 229 4 gusting 12 3.9
2019-Dec-04 20:46 259 4 gusting 12 3.9
2019-Dec-04 20:40 240 3 gusting 11 3.9
2019-Dec-04 20:35 235 4 gusting 11 3.9
2019-Dec-04 20:31 246 6 gusting 10 3.9
2019-Dec-04 20:25 275 5 gusting 11 3.9
2019-Dec-04 20:20 239 5 gusting 11 3.9
2019-Dec-04 20:16 283 3 gusting 10 3.9
2019-Dec-04 20:10 245 3 gusting 10 3.9
2019-Dec-04 20:05 261 5 gusting 10 3.9
2019-Dec-04 20:01 252 5 gusting 9 3.9
2019-Dec-04 19:55 303 4 gusting 14 3.9
2019-Dec-04 19:50 271 7 gusting 14 3.9
2019-Dec-04 19:45 229 5 gusting 11 3.9
2019-Dec-04 19:40 260 6 gusting 11 3.9
2019-Dec-04 19:35 231 2 gusting 8 3.9
2019-Dec-04 19:31 279 3 gusting 7 3.9
2019-Dec-04 19:25 234 5 gusting 8 3.9
2019-Dec-04 19:20 271 3 gusting 8 3.9
2019-Dec-04 19:16 260 4 gusting 7 3.9
2019-Dec-04 19:10 261 1 gusting 7 3.9
2019-Dec-04 19:05 290 2 gusting 11 3.9
2019-Dec-04 19:00 270 4 gusting 11 3.9
2019-Dec-04 18:55 291 2 gusting 8 3.9
2019-Dec-04 18:50 232 3 gusting 8 3.9
2019-Dec-04 18:45 251 3 gusting 8 3.9
2019-Dec-04 18:40 234 3 gusting 8 3.3
2019-Dec-04 18:35 241 1 gusting 10 3.3
2019-Dec-04 18:25 215 3 gusting 8 3.3
2019-Dec-04 18:20 242 3 gusting 10 3.3
2019-Dec-04 18:10 265 6 gusting 10 3.3
2019-Dec-04 18:05 227 5 gusting 11 3.3
2019-Dec-04 17:55 209 3 gusting 9 3.3
2019-Dec-04 17:50 265 4 gusting 10 3.3
2019-Dec-04 17:45 261 5 gusting 12 3.3
2019-Dec-04 17:40 278 6 gusting 12 3.3
2019-Dec-04 17:35 265 6 gusting 12 3.9
2019-Dec-04 17:25 237 5 gusting 13 3.9
2019-Dec-04 17:20 248 7 gusting 13 3.9
2019-Dec-04 17:10 259 6 gusting 11 3.9
2019-Dec-04 17:05 247 5 gusting 10 3.9
2019-Dec-04 17:00 232 3 gusting 11 3.9
2019-Dec-04 16:55 235 5 gusting 12 3.9
2019-Dec-04 16:50 274 6 gusting 12 3.9
2019-Dec-04 16:45 248 4 gusting 11 3.9
2019-Dec-04 16:40 221 4 gusting 11 3.9
2019-Dec-04 16:35 267 5 gusting 10 3.9
2019-Dec-04 16:30 286 4 gusting 8 3.9
2019-Dec-04 16:25 291 2 gusting 9 3.9
2019-Dec-04 16:20 264 2 gusting 8 3.9
2019-Dec-04 16:11 245 6 gusting 12 3.3
2019-Dec-04 16:06 236 5 gusting 11 3.3
2019-Dec-04 15:55 257 4 gusting 8 3.3
2019-Dec-04 15:50 272 4 gusting 8 3.3
2019-Dec-04 15:47 234 2 gusting 8 3.3
2019-Dec-04 15:41 234 4 gusting 8 3.3
2019-Dec-04 15:35 253 4 gusting 8 3.3
2019-Dec-04 15:32 275 4 gusting 8 3.3
2019-Dec-04 15:25 254 5 gusting 8 3.3
2019-Dec-04 15:21 261 3 gusting 8 3.3
2019-Dec-04 15:16 254 2 gusting 9 3.3
2019-Dec-04 15:10 234 5 gusting 9 3.3
2019-Dec-04 15:05 271 2 gusting 10 2.8
2019-Dec-04 15:02 259 6 gusting 10 2.8
2019-Dec-04 14:56 238 5 gusting 10 2.8
2019-Dec-04 14:50 239 5 gusting 11 2.8
2019-Dec-04 14:46 279 6 gusting 13 2.8
2019-Dec-04 14:41 245 5 gusting 13 3.3
2019-Dec-04 14:35 250 4 gusting 11 3.3
2019-Dec-04 14:31 253 6 gusting 11 2.8
2019-Dec-04 14:25 290 2 gusting 12 2.8
2019-Dec-04 14:20 246 5 gusting 12 2.8
2019-Dec-04 14:16 257 4 gusting 9 2.8
2019-Dec-04 14:10 295 3 gusting 9 2.8
2019-Dec-04 14:05 238 3 gusting 11 2.8
2019-Dec-04 14:01 233 4 gusting 11 2.8
2019-Dec-04 13:55 251 2 gusting 9 2.8
2019-Dec-04 13:50 285 2 gusting 8 2.8
2019-Dec-04 13:46 268 4 gusting 9 2.8
2019-Dec-04 13:40 232 4 gusting 9 2.8
2019-Dec-04 13:35 284 2 gusting 8 2.8
2019-Dec-04 13:31 223 4 gusting 8 2.8
2019-Dec-04 13:25 248 3 gusting 8 2.2
2019-Dec-04 13:20 236 3 gusting 7 2.2
2019-Dec-04 13:16 243 2 gusting 9 2.2
2019-Dec-04 13:10 236 2 gusting 9 2.2
2019-Dec-04 13:01 226 2 gusting 6 2.2
2019-Dec-04 12:55 250 2 gusting 8 2.2
2019-Dec-04 12:50 275 1 gusting 8 2.2
2019-Dec-04 12:46 238 2 gusting 8 2.2
2019-Dec-04 12:40 233 2 gusting 7 2.2
2019-Dec-04 12:35 252 4 gusting 7 2.2
2019-Dec-04 12:32 245 3 gusting 8 2.2
2019-Dec-04 12:25 252 5 gusting 8 2.2
2019-Dec-04 12:20 251 3 gusting 7 2.2
2019-Dec-04 12:16 253 2 gusting 6 1.7
2019-Dec-04 12:10 263 1 gusting 6 1.7
2019-Dec-04 12:05 246 2 gusting 6 1.7
2019-Dec-04 12:01 233 2 gusting 5 1.7
2019-Dec-04 11:55 217 3 gusting 5 1.7
2019-Dec-04 11:50 229 3 gusting 5 1.7
2019-Dec-04 11:46 229 2 gusting 7 1.7
2019-Dec-04 11:40 224 3 gusting 7 1.7
2019-Dec-04 11:35 277 2 gusting 6 1.7
2019-Dec-04 11:31 264 2 gusting 6 1.7
2019-Dec-04 11:25 240 3 gusting 7 1.7
2019-Dec-04 11:20 275 2 gusting 7 1.7
2019-Dec-04 11:16 259 2 gusting 6 1.7
2019-Dec-04 11:10 226 1 gusting 6 1.7
2019-Dec-04 11:05 256 2 gusting 6 1.7
2019-Dec-04 11:01 220 2 gusting 6 1.7
2019-Dec-04 10:55 222 2 gusting 6 1.1
2019-Dec-04 10:50 224 1 gusting 4 1.1
2019-Dec-04 10:46 232 1 gusting 6 1.1
2019-Dec-04 10:40 254 2 gusting 6 1.1
2019-Dec-04 10:35 237 2 gusting 6 1.1
2019-Dec-04 10:31 238 1 gusting 6 1.1
2019-Dec-04 10:25 259 2 gusting 6 1.1
2019-Dec-04 10:20 244 2 gusting 6 1.1
2019-Dec-04 10:16 226 2 gusting 6 0.6
2019-Dec-04 10:10 251 1 gusting 3 0.6
2019-Dec-04 10:05 261 0.6
2019-Dec-04 10:00 261 0.6
2019-Dec-04 09:55 261 0.6
2019-Dec-04 09:50 261 0 gusting 2 0.6
2019-Dec-04 09:45 261 1 gusting 2 0.6
2019-Dec-04 09:40 261 0.6
2019-Dec-04 09:35 261 0.6
2019-Dec-04 09:30 261 0.6
2019-Dec-04 09:25 261 0.6
2019-Dec-04 09:20 261 0.6
2019-Dec-04 09:15 257 0 gusting 3 0.6
2019-Dec-04 09:10 296 1 gusting 5 0.6
2019-Dec-04 09:05 296 0 gusting 5 0.6
2019-Dec-04 09:00 302 0 gusting 3 0.6
2019-Dec-04 08:55 267 0 gusting 5 0.6
2019-Dec-04 08:50 262 1 gusting 5 0.6
2019-Dec-04 08:46 266 1 gusting 6 0.6
2019-Dec-04 08:40 279 1 gusting 6 0.6
2019-Dec-04 08:35 245 2 gusting 6 0.6
2019-Dec-04 08:30 276 0 gusting 5 0.6
2019-Dec-04 08:25 294 1 gusting 5 0.6
2019-Dec-04 08:20 270 0 gusting 7 0.6
2019-Dec-04 08:15 300 3 gusting 7 0.6
2019-Dec-04 08:10 292 3 gusting 7 0.6
2019-Dec-04 08:05 300 2 gusting 7 0.6
2019-Dec-04 08:01 290 1 gusting 7 0.6
2019-Dec-04 07:50 239 3 gusting 8 0.6
2019-Dec-04 07:45 268 1 gusting 6 0.6
2019-Dec-04 07:40 320 3 gusting 6 0.6
2019-Dec-04 07:35 279 3 gusting 6 0.6
2019-Dec-04 07:30 284 3 gusting 6 0.6
2019-Dec-04 07:25 308 1 gusting 6 0.6
2019-Dec-04 07:20 248 1 gusting 7 0.6
2019-Dec-04 07:16 304 3 gusting 7 -0.0
2019-Dec-04 07:10 302 4 gusting 7 -0.0
2019-Dec-04 07:05 290 4 gusting 7 -0.0
2019-Dec-04 07:00 306 2 gusting 8 -0.0
2019-Dec-04 06:55 281 3 gusting 10 -0.0
2019-Dec-04 06:46 300 4 gusting 8 -0.0
2019-Dec-04 06:40 288 4 gusting 8 -0.0
2019-Dec-04 06:35 238 4 gusting 8 -0.0
2019-Dec-04 06:25 257 4 gusting 9 -0.0
2019-Dec-04 06:15 281 3 gusting 10 0.6
2019-Dec-04 06:10 262 4 gusting 11 0.6
2019-Dec-04 06:05 302 5 gusting 11 0.6
2019-Dec-04 05:55 286 4 gusting 10 0.6
2019-Dec-04 05:50 291 4 gusting 10 0.6
2019-Dec-04 05:40 286 5 gusting 9 0.6
2019-Dec-04 05:35 280 6 gusting 9 0.6
2019-Dec-04 05:30 293 3 gusting 10 0.6
2019-Dec-04 05:25 304 4 gusting 7 0.6
2019-Dec-04 05:20 294 4 gusting 12 0.6
2019-Dec-04 05:15 246 7 gusting 12 0.6
2019-Dec-04 05:10 323 6 gusting 10 0.6
2019-Dec-04 05:05 282 5 gusting 10 0.6